Location: Codford Saint Peter
(51.1597°N, 2.0531°W)
Time: 17:24:11
(UTC+00:00)

SPOT 5 - Pass Details

Date: 18 September 2020
Orbit: 623 x 815 km, 98.3° (Epoch: 31 October)

Event Time Altitude Azimuth Distance (km) Brightness Sun altitude
Exits shadow 22:19:25 41° 300° (WNW) 1,145 4.1 -33.1°
Drops below altitude 10° 22:23:20 10° 336° (NNW) 2,394 6.4 -33.4°
Sets 22:25:49 0° 342° (NNW) 3,342 7.3 -33.6°
